Wind_Speed
39 40 41 41 40 40 40 39 39 38 38 38 38 37 36 36 35 34 34 34 34 33 33 32 32 32 32 31 31 31 31 31 30 29 28 28 27 27 26 25 25 24 24
40 41 42 42 42 42 42 42 41 41 40 41 40 40 40 39 38 38 37 36 36 36 35 35 34 34 34 33 33 33 33 32 32 32 31 30 30 29 28 28 27 27 26
43 43 43 44 44 44 44 44 44 43 43 43 43 43 43 42 41 41 40 40 39 39 38 38 37 37 36 36 36 35 35 34 34 33 33 32 32 31 31 30 30 29 28
45 45 45 45 45 46 47 47 47 46 46 46 46 46 45 45 44 44 43 42 42 42 41 41 40 40 39 39 38 37 37 36 36 35 34 33 33 33 32 32 31 31 30
48 48 48 48 47 47 49 50 50 49 48 48 48 48 48 47 47 46 46 45 45 45 44 44 43 43 42 42 41 41 40 39 38 37 37 36 35 34 34 34 33 33 32
49 50 51 51 50 50 51 51 51 51 51 51 50 50 50 50 50 49 48 48 48 48 47 47 47 46 46 45 45 44 43 42 41 40 39 38 37 36 35 35 34 34 34
51 52 52 51 51 52 52 53 53 53 53 53 53 52 52 52 52 52 51 51 50 50 50 50 50 49 49 48 47 47 46 45 44 44 42 40 39 39 37 36 35 35 34
53 54 54 53 53 53 53 54 54 54 53 53 53 53 53 53 53 53 53 54 54 54 53 52 52 51 51 50 50 49 48 47 46 46 44 43 42 41 40 39 38 37 35
54 54 54 53 53 53 53 54 54 54 54 53 53 54 54 53 54 53 54 55 56 56 55 55 54 53 53 53 52 52 51 50 49 48 48 45 44 44 44 42 41 40 39
52 54 54 54 54 54 54 54 54 55 55 55 55 55 56 55 55 55 55 55 56 56 56 56 56 55 55 55 54 54 53 53 52 51 50 48 46 46 45 44 43 43 41
51 52 53 54 54 54 54 54 55 56 56 57 57 56 57 57 56 56 56 56 57 58 58 58 59 58 57 56 56 56 55 55 54 53 53 52 49 48 46 46 45 45 44
51 52 52 54 55 54 55 55 56 55 56 57 58 58 58 58 58 58 57 57 57 57 58 59 60 60 59 58 58 58 57 57 57 56 55 55 53 51 50 48 48 48 47
52 53 53 53 54 55 55 55 56 55 55 56 57 58 58 58 59 59 58 57 57 57 58 59 59 59 60 60 60 59 59 59 59 59 58 58 57 55 53 51 50 50 49
50 52 52 53 54 54 54 54 54 55 55 55 55 56 56 56 57 57 57 57 57 57 57 58 59 60 60 61 61 62 61 61 61 61 60 60 60 58 56 55 53 53 52
50 51 52 53 53 54 54 54 54 54 54 54 55 55 56 55 55 56 56 57 58 57 57 57 57 59 60 61 62 62 63 63 63 63 62 62 61 60 59 58 56 55 54
50 51 51 52 53 53 53 53 53 54 53 53 54 54 55 55 55 55 56 56 57 58 57 57 57 58 60 61 62 63 63 64 64 64 64 64 63 62 61 60 59 58 57
50 51 50 51 50 51 52 52 52 53 54 53 53 54 54 54 54 54 55 56 56 57 57 57 57 58 58 60 62 63 64 64 64 64 64 65 65 64 63 63 61 60 59
48 48 49 48 48 49 50 50 51 51 53 53 53 53 53 53 53 53 54 54 55 56 57 57 57 57 58 59 60 61 63 63 63 64 65 66 66 65 65 64 63 62 61
47 47 47 46 46 47 48 49 49 50 51 53 53 53 53 53 53 52 53 53 54 55 57 57 57 57 58 59 59 60 62 63 63 64 65 66 66 66 66 66 65 63 62
45 46 45 45 45 45 46 47 47 48 50 52 53 54 54 54 54 54 54 54 54 54 55 56 56 57 57 58 59 60 61 62 63 64 65 66 67 67 67 67 66 65 64
43 43 43 44 44 44 45 46 46 47 48 50 51 53 53 54 55 55 55 55 54 53 54 54 55 56 56 57 58 59 60 61 62 64 65 67 67 67 66 66 66 66 66
41 41 42 43 43 44 44 45 44 45 46 48 49 51 53 53 53 54 55 55 55 54 54 54 55 55 56 56 56 56 58 60 61 62 64 65 66 67 67 67 67 67 66
40 40 41 42 43 43 44 44 44 44 44 45 47 49 51 52 52 53 54 54 54 54 54 54 54 54 55 56 56 56 56 57 59 60 62 63 64 66 66 66 67 67 67
39 40 40 40 41 42 43 44 44 44 44 44 45 47 49 51 52 52 53 54 53 53 53 54 54 54 54 55 55 56 56 56 57 57 59 61 62 63 65 66 66 66 67
39 39 39 40 39 40 41 43 43 43 43 43 43 45 46 48 50 51 52 52 53 52 52 53 53 53 54 54 55 56 56 56 56 57 58 59 60 61 62 63 64 66 66
38 38 38 38 38 38 39 40 41 41 41 42 42 43 44 45 47 49 50 50 50 51 51 51 51 51 51 52 52 53 54 54 55 55 56 57 58 59 60 61 63 64 65
Wind_Direction
259 258 256 254 255 254 254 255 255 254 254 254 254 254 253 251 251 250 249 249 248 248 247 247 248 248 249 249 249 249 249 248 249 250 250 249 251 252 253 254 254 254 255
259 257 257 255 256 255 254 254 255 254 255 255 255 255 254 252 251 250 250 249 248 248 248 248 248 248 248 248 250 250 250 249 249 249 250 250 251 252 253 254 255 255 255
259 258 258 256 256 256 256 255 255 255 256 256 255 255 254 253 251 251 250 250 249 248 249 249 248 248 248 249 249 249 250 249 249 249 250 251 251 252 252 253 253 254 255
262 261 260 259 257 256 257 257 256 256 257 257 256 255 254 254 253 252 251 250 249 249 249 249 248 248 248 249 249 250 250 250 249 249 250 250 251 251 251 252 252 253 253
264 263 262 261 259 258 258 258 257 258 257 257 256 255 255 255 254 253 252 251 250 249 249 249 249 248 248 249 250 250 250 250 249 248 249 250 250 251 251 252 252 252 252
264 263 263 261 259 259 258 258 258 258 258 258 257 256 256 256 255 253 252 252 251 250 250 250 250 250 250 250 250 250 250 250 249 247 248 249 250 251 251 252 252 253 253
265 263 262 261 259 259 260 260 258 258 258 258 257 256 256 256 255 254 252 252 251 251 250 250 250 250 250 250 250 250 250 249 248 248 248 249 250 250 251 252 252 253 252
266 264 262 261 260 259 259 259 258 258 258 258 257 257 256 256 255 254 253 252 251 251 251 251 250 250 250 250 250 250 250 249 247 247 248 249 250 251 251 252 251 251 252
267 265 263 262 261 260 259 258 258 257 257 257 257 257 256 255 255 254 254 253 252 251 251 250 250 250 249 249 250 250 249 248 248 248 248 248 250 250 251 252 252 251 252
267 265 264 262 262 261 260 259 259 258 257 257 257 257 257 256 256 254 254 254 252 252 251 250 250 250 249 249 249 249 248 248 247 248 248 248 248 249 250 251 252 251 251
267 266 264 263 262 261 261 260 259 259 257 257 257 257 257 256 256 256 255 254 253 253 251 250 249 249 249 249 249 248 248 248 247 247 247 247 247 249 250 251 250 250 250
268 267 267 265 264 263 262 261 260 260 258 258 258 258 257 257 257 256 256 254 253 252 252 250 249 249 249 249 248 248 248 247 247 247 247 247 247 248 249 250 249 250 250
270 269 268 268 266 264 263 262 261 260 259 259 258 258 258 257 257 256 257 255 254 253 252 251 249 249 249 249 249 248 248 247 247 247 247 247 247 247 248 249 249 250 250
271 269 269 269 267 265 264 262 261 259 259 258 258 258 257 257 257 256 256 256 254 253 252 251 250 249 249 249 249 248 248 247 247 247 247 246 246 247 247 248 249 249 250
273 271 270 269 268 267 264 262 261 259 258 257 257 257 257 257 257 256 256 255 255 253 252 252 251 250 249 248 248 247 247 247 246 247 246 246 246 247 247 248 248 249 250
274 273 271 270 268 266 264 262 260 258 257 256 256 256 256 256 256 256 256 256 255 255 253 252 251 251 250 249 248 247 246 247 246 246 246 246 246 246 247 248 248 249 250
275 274 273 272 269 266 264 262 260 258 257 257 256 256 256 256 255 255 255 255 255 254 253 252 252 251 251 250 249 248 246 246 246 246 246 246 246 246 247 248 248 249 249
277 275 274 272 269 267 264 262 261 259 258 257 255 255 255 254 254 255 255 255 255 254 254 253 252 251 250 250 250 249 247 246 246 246 246 245 245 246 246 247 248 248 248
277 275 275 272 270 267 264 263 261 260 258 257 255 255 254 254 253 254 254 255 254 254 254 253 252 251 250 250 249 249 248 248 247 247 246 245 245 246 246 246 247 247 248
278 275 274 272 270 268 266 264 263 261 259 257 256 255 254 253 253 253 254 254 255 254 254 254 253 251 251 251 250 249 249 249 248 248 247 246 246 246 245 246 247 247 247
278 276 273 271 270 268 267 266 264 262 260 258 257 255 254 254 254 254 255 255 255 255 255 254 254 252 252 252 252 251 250 249 249 248 247 247 246 246 246 246 246 246 247
279 277 274 272 270 269 268 267 266 264 262 260 258 256 255 254 254 254 255 255 256 256 255 255 254 254 253 253 253 253 251 249 249 248 248 247 246 246 246 246 246 247 247
280 279 277 274 272 270 269 268 267 266 264 261 259 257 255 253 254 254 254 254 255 256 256 256 255 255 255 253 253 253 252 251 249 248 248 247 246 246 245 245 246 246 247
280 279 278 277 274 271 269 268 267 267 265 263 260 258 256 255 254 254 254 254 255 255 256 256 256 256 256 255 254 253 252 251 249 248 248 248 246 246 245 245 245 246 247
281 281 279 278 275 273 271 269 268 267 266 264 262 260 258 256 255 254 254 254 254 255 255 256 255 256 256 255 255 253 252 251 250 249 249 249 248 247 246 246 246 246 247
282 282 281 279 276 274 272 270 269 268 267 266 264 262 260 258 257 255 254 254 254 253 253 254 255 255 254 254 254 253 252 251 251 250 250 249 248 247 247 247 247 247 247
Height
5762 5763 5764 5765 5766 5768 5769 5771 5772 5773 5775 5776 5778 5779 5781 5782 5783 5785 5786 5788 5789 5791 5792 5794 5795 5796 5798 5799 5800 5802 5803 5805 5806 5808 5809 5810 5811 5812 5813 5814 5815 5816 5816
5752 5753 5753 5754 5756 5757 5759 5761 5762 5764 5765 5767 5768 5770 5771 5773 5774 5776 5778 5779 5781 5783 5784 5786 5787 5789 5790 5792 5793 5794 5796 5798 5799 5801 5802 5803 5805 5806 5807 5808 5809 5810 5811
5741 5741 5742 5743 5745 5746 5748 5750 5751 5753 5755 5756 5758 5759 5761 5763 5764 5766 5768 5770 5772 5774 5775 5777 5779 5780 5782 5783 5785 5786 5788 5790 5791 5793 5795 5796 5798 5799 5800 5801 5802 5804 5805
5730 5730 5731 5732 5733 5735 5736 5738 5740 5742 5743 5745 5746 5748 5750 5752 5754 5755 5757 5759 5762 5764 5766 5768 5770 5771 5773 5775 5776 5778 5780 5781 5784 5786 5787 5789 5790 5792 5793 5794 5795 5797 5798
5717 5718 5719 5720 5721 5722 5724 5725 5727 5729 5731 5732 5734 5736 5738 5740 5742 5744 5746 5748 5750 5753 5755 5757 5759 5761 5763 5765 5767 5769 5771 5773 5775 5777 5779 5780 5782 5784 5785 5787 5788 5789 5791
5704 5705 5706 5707 5708 5709 5711 5712 5714 5715 5717 5719 5721 5723 5725 5727 5729 5731 5733 5736 5738 5740 5743 5746 5748 5750 5753 5755 5757 5759 5762 5764 5766 5768 5770 5772 5774 5776 5777 5779 5780 5782 5783
5690 5691 5691 5692 5694 5695 5696 5697 5699 5701 5703 5704 5707 5709 5711 5713 5715 5717 5720 5722 5725 5727 5730 5733 5736 5739 5741 5744 5746 5749 5751 5753 5756 5758 5760 5763 5765 5767 5769 5770 5772 5773 5775
5675 5676 5676 5677 5678 5679 5680 5682 5684 5686 5688 5689 5691 5693 5696 5699 5701 5703 5705 5708 5711 5714 5717 5720 5723 5726 5729 5732 5735 5737 5740 5742 5745 5747 5750 5753 5755 5757 5759 5761 5763 5765 5767
5660 5660 5661 5661 5663 5664 5665 5667 5668 5670 5672 5674 5676 5678 5681 5684 5686 5690 5691 5693 5696 5699 5702 5705 5709 5712 5715 5719 5722 5725 5728 5731 5733 5736 5739 5742 5745 5747 5750 5751 5754 5756 5758
5645 5645 5645 5646 5647 5648 5649 5651 5653 5654 5657 5659 5661 5663 5665 5667 5671 5675 5678 5679 5681 5684 5687 5690 5694 5698 5701 5704 5708 5712 5715 5718 5721 5724 5727 5730 5733 5736 5739 5741 5744 5746 5748
5631 5630 5630 5631 5631 5632 5634 5635 5637 5638 5640 5643 5645 5647 5649 5651 5654 5658 5662 5664 5666 5669 5672 5675 5679 5682 5686 5690 5694 5698 5701 5704 5708 5711 5715 5718 5721 5724 5727 5730 5733 5735 5738
5617 5616 5615 5616 5616 5617 5618 5619 5621 5622 5624 5626 5628 5630 5633 5635 5638 5640 5645 5648 5651 5653 5656 5659 5663 5666 5670 5674 5678 5683 5686 5690 5694 5698 5701 5705 5708 5712 5715 5718 5721 5724 5727
5603 5602 5601 5601 5601 5601 5602 5603 5605 5606 5608 5610 5612 5614 5616 5618 5621 5623 5627 5631 5634 5637 5639 5643 5646 5649 5653 5658 5662 5666 5671 5675 5679 5683 5687 5691 5695 5698 5702 5706 5709 5712 5715
5588 5587 5586 5586 5585 5585 5586 5587 5589 5590 5592 5594 5596 5598 5600 5602 5604 5606 5610 5613 5617 5621 5623 5627 5629 5633 5637 5641 5645 5650 5654 5659 5663 5668 5672 5676 5681 5685 5689 5692 5696 5700 5703
5573 5572 5571 5570 5570 5570 5570 5571 5573 5574 5576 5578 5579 5581 5584 5586 5588 5590 5593 5595 5599 5603 5608 5611 5613 5616 5619 5623 5628 5632 5637 5642 5646 5651 5656 5661 5665 5670 5674 5678 5682 5686 5689
5558 5557 5556 5555 5555 5555 5555 5555 5557 5558 5560 5561 5563 5565 5568 5570 5572 5574 5577 5579 5582 5585 5590 5595 5597 5600 5603 5606 5610 5614 5619 5624 5629 5634 5639 5644 5649 5654 5659 5663 5667 5672 5675
5544 5542 5541 5540 5539 5539 5539 5540 5541 5542 5544 5546 5548 5550 5552 5554 5557 5559 5561 5563 5566 5569 5573 5578 5580 5583 5586 5590 5593 5597 5602 5606 5612 5617 5622 5627 5632 5637 5642 5647 5652 5656 5660
5529 5527 5526 5525 5525 5524 5525 5525 5526 5527 5528 5530 5532 5534 5537 5539 5541 5544 5546 5548 5550 5553 5556 5561 5564 5567 5570 5573 5576 5580 5584 5589 5594 5599 5604 5609 5615 5620 5625 5630 5635 5640 5644
5515 5513 5512 5511 5511 5510 5510 5511 5511 5512 5513 5515 5517 5519 5521 5523 5526 5528 5530 5533 5535 5537 5540 5543 5547 5551 5554 5557 5560 5563 5567 5571 5576 5581 5586 5591 5597 5603 5608 5613 5618 5624 5629
5502 5500 5499 5498 5497 5497 5496 5496 5497 5497 5498 5500 5501 5503 5506 5508 5510 5513 5515 5517 5519 5522 5524 5527 5531 5534 5537 5540 5543 5546 5550 5554 5559 5564 5568 5574 5579 5585 5591 5597 5603 5608 5612
5489 5487 5486 5485 5484 5483 5483 5482 5482 5483 5484 5485 5486 5488 5490 5492 5494 5497 5499 5502 5504 5506 5509 5511 5514 5517 5521 5523 5526 5529 5533 5537 5542 5545 5550 5557 5563 5569 5573 5579 5584 5589 5594
5476 5475 5473 5472 5471 5470 5470 5469 5468 5468 5469 5470 5471 5473 5474 5477 5479 5481 5484 5486 5488 5491 5493 5495 5498 5501 5505 5507 5510 5512 5516 5520 5526 5531 5533 5539 5544 5549 5555 5561 5566 5571 5576
5464 5462 5461 5459 5459 5458 5457 5456 5455 5455 5455 5456 5457 5458 5459 5462 5463 5466 5468 5470 5473 5475 5477 5480 5483 5485 5489 5492 5494 5497 5499 5502 5508 5512 5515 5521 5526 5531 5537 5543 5548 5553 5559
5453 5451 5449 5447 5446 5445 5443 5442 5442 5441 5442 5442 5442 5443 5445 5446 5448 5450 5452 5455 5457 5460 5463 5465 5468 5471 5472 5475 5477 5480 5483 5486 5491 5495 5498 5503 5508 5514 5520 5525 5530 5536 5541
5441 5438 5436 5435 5433 5432 5430 5429 5428 5428 5428 5428 5429 5429 5430 5432 5433 5435 5437 5440 5443 5445 5447 5449 5452 5454 5456 5459 5461 5463 5467 5470 5475 5479 5482 5487 5492 5496 5501 5507 5513 5518 5523
5429 5427 5424 5422 5421 5419 5418 5416 5415 5415 5415 5416 5416 5416 5417 5417 5418 5419 5421 5423 5427 5430 5432 5434 5436 5439 5441 5443 5446 5448 5451 5455 5459 5464 5467 5471 5475 5479 5485 5490 5495 5500 5505